Fremont, NE

10:04 PM CDT on September 19, 2017 (GMT -0500)
Fremont Municipal

Weather History for KFET - November, 2013

Change the Weather History Date:

Monday, November 25, 2013

  Actual Average Record
Temperature  
Mean Temperature 36 °F -  
Max Temperature 46 °F 45 °F 79 °F (1960)
Min Temperature 25 °F 24 °F 4 °F (1975)
Degree Days  
Heating Degree Days 30    
Moisture  
Dew Point 23 °F    
Average Humidity 69    
Maximum Humidity 92    
Minimum Humidity 49    
Precipitation  
Precipitation 0.00 in - - ()
Sea Level Pressure  
Sea Level Pressure 30.15 in    
Wind  
Wind Speed 11 mph (West)    
Max Wind Speed 18 mph    
Max Gust Speed 31 mph    
Visibility 10 miles    
Events      
Averages and records for this station are not official NWS values.
T = Trace of Precipitation, MM = Missing Value Source: NWS Daily Summary

Daily Weather History Graph

Daily Weather History Graph

Search for Another Location

Airport or City:

Trip Planner

Search our weather history database for the weather conditions in past years. The results will help you decide how hot, cold, wet, or windy it might be!

Date:

Astronomy

Nov. 25, 2013 Rise Set
Actual Time 7:26 AM CST 4:59 PM CST
Civil Twilight 6:56 AM CST 5:29 PM CST
Nautical Twilight 6:22 AM CST 6:03 PM CST
Astronomical Twilight 5:48 AM CST 6:37 PM CST
Moon No Moon Rise 12:41 PM CST (11/25)
Length of Visible Light 10h 33m
Length of Day
9h 32m
Waning Gibbous, 51% of the Moon is Illuminated
Nov 25
Waning Gibbous
Nov 25
Last Quarter
Dec 2
New
Dec 9
First Quarter
Dec 17
Full

Hourly Weather History & Observations

Time (CST) Temp. Windchill Dew Point Humidity Pressure Visibility Wind Dir Wind Speed Gust Speed Precip Events Conditions
12:15 AM 28.9 °F 18.2 °F 13.1 °F 52% 30.19 in 10.0 mi South 13.8 mph - N/A   Scattered Clouds
12:35 AM 28.4 °F 19.1 °F 13.1 °F 53% 30.18 in 10.0 mi South 10.4 mph 17.3 mph N/A   Scattered Clouds
12:55 AM 27.9 °F 19.1 °F 12.7 °F 53% 30.18 in 10.0 mi South 9.2 mph 18.4 mph N/A   Clear
1:15 AM 27.3 °F 17.1 °F 12.6 °F 54% 30.16 in 10.0 mi South 11.5 mph - N/A   Clear
1:35 AM 26.6 °F 17.5 °F 12.2 °F 55% 30.17 in 10.0 mi South 9.2 mph - N/A   Mostly Cloudy
1:55 AM 26.2 °F 15.8 °F 12.6 °F 56% 30.16 in 10.0 mi South 11.5 mph - N/A   Mostly Cloudy
2:15 AM 26.6 °F 15.7 °F 12.7 °F 56% 30.16 in 10.0 mi South 12.7 mph 18.4 mph N/A   Scattered Clouds
2:35 AM 26.6 °F 15.7 °F 13.1 °F 57% 30.15 in 10.0 mi South 12.7 mph 19.6 mph N/A   Clear
2:55 AM 26.4 °F 15.0 °F 13.3 °F 58% 30.13 in 10.0 mi South 13.8 mph - N/A   Clear
3:15 AM 26.1 °F 15.0 °F 13.8 °F 60% 30.13 in 10.0 mi South 12.7 mph - N/A   Clear
3:35 AM 26.1 °F 16.2 °F 14.2 °F 61% 30.12 in 10.0 mi South 10.4 mph - N/A   Clear
3:55 AM 26.2 °F 15.8 °F 15.3 °F 63% 30.12 in 10.0 mi South 11.5 mph - N/A   Clear
4:15 AM 26.4 °F 15.5 °F 15.8 °F 64% 30.11 in 10.0 mi South 12.7 mph - N/A   Clear
4:35 AM 27.1 °F 16.9 °F 16.5 °F 64% 30.11 in 10.0 mi South 11.5 mph 18.4 mph N/A   Mostly Cloudy
4:55 AM 27.1 °F 16.4 °F 17.1 °F 66% 30.11 in 10.0 mi South 12.7 mph 18.4 mph N/A   Scattered Clouds
5:15 AM 27.1 °F 16.4 °F 17.4 °F 67% 30.11 in 10.0 mi South 12.7 mph 18.4 mph N/A   Clear
5:35 AM 26.8 °F 17.1 °F 18.1 °F 70% 30.11 in 10.0 mi South 10.4 mph - N/A   Clear
5:55 AM 27.0 °F 19.5 °F 18.9 °F 72% 30.11 in 10.0 mi SW 6.9 mph - N/A   Clear
6:15 AM 26.6 °F 19.1 °F 19.2 °F 74% 30.11 in 10.0 mi SSW 6.9 mph - N/A   Clear
6:35 AM 26.2 °F 18.6 °F 19.4 °F 75% 30.11 in 10.0 mi SSW 6.9 mph - N/A   Clear
6:55 AM 26.1 °F 19.4 °F 19.8 °F 77% 30.12 in 10.0 mi WSW 5.8 mph - N/A   Clear
7:15 AM 25.7 °F 19.0 °F 20.1 °F 79% 30.13 in 10.0 mi SW 5.8 mph - N/A   Clear
7:35 AM 26.2 °F 18.6 °F 20.8 °F 80% 30.13 in 10.0 mi SW 6.9 mph - N/A   Clear
7:55 AM 27.3 °F 16.6 °F 21.6 °F 79% 30.12 in 10.0 mi SSW 12.7 mph 17.3 mph N/A   Clear
8:15 AM 28.2 °F 18.9 °F 22.1 °F 78% 30.13 in 10.0 mi SW 10.4 mph 19.6 mph N/A   Clear
8:35 AM 29.3 °F 19.1 °F 23.5 °F 79% 30.13 in 10.0 mi SW 12.7 mph - N/A   Clear
8:55 AM 30.4 °F 22.2 °F 24.6 °F 79% 30.13 in 10.0 mi SW 9.2 mph - N/A   Clear
9:15 AM 31.3 °F 21.1 °F 25.5 °F 79% 30.13 in 10.0 mi SW 13.8 mph 19.6 mph N/A   Clear
9:35 AM 32.0 °F 22.5 °F 26.4 °F 80% 30.14 in 10.0 mi WSW 12.7 mph - N/A   Clear
9:55 AM 32.4 °F 24.6 °F 27.3 °F 82% 30.14 in 10.0 mi WSW 9.2 mph - N/A   Clear
10:15 AM 32.9 °F 24.7 °F 27.5 °F 81% 30.14 in 10.0 mi West 10.4 mph 18.4 mph N/A   Clear
10:35 AM 34.7 °F 26.9 °F 28.4 °F 78% 30.14 in 10.0 mi WSW 10.4 mph - N/A   Clear
10:55 AM 37.8 °F 30.2 °F 29.5 °F 72% 30.14 in 10.0 mi WSW 11.5 mph - N/A   Clear
11:15 AM 39.0 °F 31.4 °F 29.8 °F 70% 30.13 in 10.0 mi West 12.7 mph - N/A   Clear
11:35 AM 40.3 °F 32.6 °F 29.7 °F 66% 30.13 in 10.0 mi WNW 13.8 mph - N/A   Clear
11:55 AM 40.1 °F 32.7 °F 29.5 °F 66% 30.13 in 10.0 mi WNW 12.7 mph - N/A   Clear
12:15 PM 41.7 °F 33.4 °F 30.0 °F 63% 30.13 in 10.0 mi NW 17.3 mph 25.3 mph N/A   Clear
12:35 PM 42.8 °F 34.5 °F 29.8 °F 60% 30.12 in 10.0 mi NW 18.4 mph 27.6 mph N/A   Clear
12:55 PM 42.1 °F 34.2 °F 29.3 °F 61% 30.12 in 10.0 mi NW 16.1 mph 26.5 mph N/A   Clear
1:15 PM 42.4 °F 36.5 °F 28.8 °F 58% 30.12 in 10.0 mi NW 10.4 mph - N/A   Clear
1:35 PM 44.2 °F 39.2 °F 28.4 °F 54% 30.12 in 10.0 mi NNW 9.2 mph 16.1 mph N/A   Clear
1:55 PM 45.5 °F 38.6 °F 28.4 °F 51% 30.11 in 10.0 mi NW 16.1 mph 31.1 mph N/A   Clear
2:15 PM 46.8 °F - 28.8 °F 50% 30.11 in 10.0 mi NW 11.5 mph 19.6 mph N/A   Clear
2:35 PM 46.6 °F - 28.0 °F 49% 30.11 in 10.0 mi NW 11.5 mph 18.4 mph N/A   Clear
2:55 PM 46.6 °F - 28.0 °F 49% 30.12 in 10.0 mi NW 16.1 mph 19.6 mph N/A   Clear
3:15 PM 46.2 °F 40.1 °F 28.2 °F 50% 30.12 in 10.0 mi NW 13.8 mph 19.6 mph N/A   Clear
3:35 PM 45.5 °F 41.8 °F 27.9 °F 50% 30.12 in 10.0 mi NNW 6.9 mph - N/A   Clear
3:55 PM 44.4 °F 38.6 °F 27.5 °F 52% 30.13 in 10.0 mi NW 11.5 mph - N/A   Clear
4:15 PM 43.5 °F 38.3 °F 27.9 °F 54% 30.14 in 10.0 mi NW 9.2 mph - N/A   Clear
4:35 PM 41.5 °F 35.9 °F 27.9 °F 58% 30.14 in 10.0 mi NW 9.2 mph - N/A   Clear
4:55 PM 38.5 °F 32.7 °F 27.1 °F 64% 30.15 in 10.0 mi NW 8.1 mph - N/A   Clear
5:15 PM 37.6 °F 33.1 °F 27.3 °F 66% 30.15 in 7.0 mi NNW 5.8 mph - N/A   Clear
5:35 PM 36.5 °F 31.8 °F 27.3 °F 69% 30.16 in 10.0 mi NNW 5.8 mph - N/A   Clear
5:55 PM 35.8 °F 31.9 °F 27.1 °F 71% 30.16 in 7.0 mi NNW 4.6 mph - N/A   Clear
6:15 PM 35.6 °F 28.6 °F 27.5 °F 72% 30.17 in 10.0 mi NW 9.2 mph - N/A   Clear
6:35 PM 34.2 °F 27.5 °F 26.6 °F 74% 30.17 in 10.0 mi NW 8.1 mph - N/A   Clear
6:55 PM 31.6 °F 26.0 °F 25.7 °F 79% 30.18 in 10.0 mi WNW 5.8 mph - N/A   Clear
7:15 PM 30.7 °F 24.1 °F 25.7 °F 82% 30.18 in 10.0 mi WNW 6.9 mph - N/A   Clear
7:35 PM 30.9 °F 23.5 °F 26.1 °F 82% 30.18 in 10.0 mi West 8.1 mph - N/A   Clear
7:55 PM 31.6 °F 24.4 °F 26.6 °F 82% 30.18 in 10.0 mi West 8.1 mph - N/A   Clear
8:15 PM 31.1 °F 24.5 °F 26.2 °F 82% 30.18 in 10.0 mi West 6.9 mph - N/A   Clear
8:35 PM 30.6 °F 23.8 °F 25.9 °F 83% 30.19 in 10.0 mi West 6.9 mph - N/A   Clear
8:55 PM 30.4 °F 23.6 °F 25.9 °F 83% 30.19 in 10.0 mi West 6.9 mph - N/A   Clear
9:15 PM 32.0 °F 24.8 °F 27.0 °F 82% 30.19 in 10.0 mi West 8.1 mph - N/A   Clear
9:35 PM 27.7 °F 22.4 °F 24.4 °F 88% 30.20 in 10.0 mi West 4.6 mph - N/A   Clear
9:55 PM 28.4 °F 20.4 °F 25.7 °F 90% 30.20 in 10.0 mi West 8.1 mph - N/A   Clear
10:15 PM 28.8 °F 22.6 °F 25.5 °F 88% 30.20 in 10.0 mi West 5.8 mph - N/A   Clear
10:35 PM 27.9 °F 24.0 °F 25.2 °F 90% 30.20 in 10.0 mi WNW 3.5 mph - N/A   Clear
10:55 PM 27.5 °F 22.2 °F 25.3 °F 92% 30.21 in 10.0 mi West 4.6 mph - N/A   Clear
11:15 PM 29.7 °F 26.1 °F 26.1 °F 86% 30.21 in 10.0 mi WNW 3.5 mph - N/A   Clear
11:35 PM 27.5 °F 20.2 °F 25.0 °F 90% 30.21 in 10.0 mi West 6.9 mph - N/A   Clear
11:55 PM 27.0 °F 19.5 °F 24.8 °F 92% 30.21 in 10.0 mi WNW 6.9 mph - N/A   Clear